Theta_e
323 328 328 328 328 328 329 329 327 327 324 320 319 319 317 318 319 319 320 319 318 317 317 317 317 318 317 318 318 318 318 319 320 320 323 326 326 326 328 328 327 327 327 325 325 325 323 322 320 317 315 314 316 317 315 320 324 323 327 327 326 330 330 331 326 321 324 325 322 321 321 322 320 317 316 319 325 327 331 337 335 335 334 332 331 331 334 336
322 326 328 328 328 328 329 330 328 327 326 321 320 322 319 317 319 320 320 320 319 318 318 317 317 318 318 318 319 319 319 320 321 322 322 324 326 327 328 328 328 327 327 326 325 324 325 323 316 314 313 313 316 316 318 320 320 326 329 325 328 336 334 328 323 321 322 322 320 321 321 319 320 318 317 323 324 326 337 337 335 341 336 332 332 333 335 335
322 325 327 327 328 328 329 330 329 328 327 324 323 324 323 321 320 320 320 320 319 319 318 318 318 318 318 319 319 319 320 321 323 324 322 322 324 326 327 328 328 327 326 325 326 325 324 320 314 315 314 313 316 316 320 320 319 326 325 322 335 340 331 323 319 320 320 320 321 320 319 320 320 317 317 323 323 324 338 341 342 344 337 335 334 332 334 334
321 324 327 327 327 328 330 331 330 328 326 326 325 325 325 324 322 321 321 321 320 319 319 318 318 318 318 318 319 320 320 321 323 323 322 322 322 324 327 327 325 325 325 323 324 324 319 314 313 315 317 318 317 316 319 321 321 321 319 324 336 330 322 321 317 319 319 318 319 319 319 320 318 317 317 320 323 322 327 335 345 345 335 335 334 332 334 333
321 322 326 327 327 327 329 331 329 327 326 325 324 325 326 325 324 323 322 322 321 320 319 319 318 318 319 318 319 319 319 323 323 320 323 324 323 325 327 325 322 321 322 322 319 318 315 314 317 320 327 328 318 315 318 319 319 318 318 324 328 321 317 321 318 318 319 316 318 319 319 319 316 316 317 319 322 321 320 325 336 339 334 335 333 333 333 333
321 322 325 327 326 327 328 330 328 325 325 325 324 323 325 325 324 324 323 323 322 322 321 320 319 319 319 319 320 318 319 325 324 319 321 323 324 326 325 322 318 317 320 319 316 316 316 319 327 329 333 335 321 314 315 314 315 319 321 321 322 319 316 319 318 316 318 317 318 319 319 318 317 316 316 318 320 321 320 319 330 335 332 334 333 333 333 332
321 322 325 327 326 327 328 329 327 324 324 325 325 324 324 326 325 325 324 324 323 323 323 322 321 320 320 320 320 319 319 322 321 319 321 321 323 325 324 321 317 317 317 316 315 317 319 323 330 329 331 335 322 311 312 312 312 316 320 320 318 317 316 318 317 316 317 317 318 317 318 317 319 318 314 316 318 321 317 313 325 334 331 333 333 332 333 332
320 321 324 326 326 327 328 329 327 325 324 324 325 324 325 326 326 326 325 325 324 324 324 323 322 321 321 321 321 322 320 319 319 320 321 321 323 324 323 320 318 318 316 315 316 317 320 322 325 328 332 334 324 313 311 311 312 315 319 320 317 316 317 317 316 317 316 317 317 316 318 318 318 317 315 316 317 318 315 314 326 334 331 333 333 333 332 331
320 321 324 326 325 326 328 329 327 326 325 325 324 324 325 326 326 326 325 325 324 324 324 324 323 321 321 321 322 325 322 319 319 320 322 323 324 325 323 320 317 316 316 316 315 317 320 322 322 326 331 330 325 318 311 309 312 315 316 318 318 317 317 316 315 316 316 316 315 317 318 316 316 315 315 318 316 318 319 324 334 334 333 335 333 332 331 331
320 322 324 326 325 325 327 327 326 326 326 325 325 324 325 326 326 325 325 325 324 324 324 324 324 322 322 322 323 325 322 319 319 321 324 324 324 325 325 322 317 315 316 315 315 317 319 320 319 320 325 327 324 318 310 309 312 312 312 314 316 317 316 316 315 315 316 315 314 318 317 315 315 313 316 317 315 321 326 331 335 334 334 334 333 332 332 331
320 322 323 325 325 325 326 326 326 326 326 326 326 325 325 326 326 325 325 325 324 324 325 325 323 322 322 322 324 325 322 320 319 322 324 324 324 325 325 322 316 314 315 313 314 314 314 315 314 317 324 326 324 319 312 309 311 310 311 313 314 315 314 314 316 315 315 314 315 318 316 315 315 314 319 317 315 323 331 333 334 335 335 333 333 332 331 331
319 322 323 324 325 325 325 326 326 326 326 326 326 326 326 326 325 325 325 325 324 324 325 324 323 322 322 323 325 322 320 320 319 322 324 323 324 324 325 322 315 314 315 313 313 313 312 312 314 321 325 324 326 323 314 310 310 310 311 314 314 313 315 315 315 316 315 314 316 318 314 315 315 316 320 317 315 324 330 332 334 334 334 333 333 332 331 331
319 322 324 324 325 324 325 325 326 326 326 326 327 326 326 325 325 325 325 324 324 324 324 323 322 322 324 326 323 319 318 319 319 321 322 322 323 324 323 319 314 314 315 313 313 312 312 312 315 319 320 325 328 320 313 310 309 311 312 314 315 313 315 316 314 315 315 315 315 315 315 317 316 316 318 315 316 325 330 331 332 332 333 332 332 331 331 330
319 322 324 324 324 324 325 325 325 325 325 326 326 326 326 325 325 324 324 324 323 324 323 323 323 322 326 325 319 318 317 317 321 322 321 320 321 322 321 317 313 314 314 313 313 312 312 313 313 315 319 325 325 316 312 311 309 313 312 314 318 317 319 317 314 315 315 314 315 312 314 318 318 316 316 314 315 324 331 330 328 329 330 331 331 330 330 329
319 322 323 324 324 324 324 325 325 325 325 326 325 325 326 325 325 324 323 323 323 323 322 322 322 322 326 324 317 318 318 318 321 321 319 320 319 318 317 314 312 313 313 313 313 312 312 312 314 320 321 320 321 318 313 310 311 313 313 317 317 315 322 320 314 316 315 313 314 312 314 318 319 317 316 313 313 320 326 327 325 325 326 327 329 329 329 329
320 322 323 323 323 324 325 325 325 325 324 325 324 325 325 325 324 323 323 323 323 322 321 321 320 322 327 323 317 318 319 320 321 319 318 319 318 317 314 312 312 313 313 313 313 312 312 313 316 322 322 322 327 321 313 311 313 317 316 320 321 315 319 318 313 316 316 314 313 312 315 317 317 316 313 312 312 315 319 321 320 321 321 322 324 326 328 328
322 323 323 323 324 324 325 326 325 324 323 324 324 325 325 324 323 323 323 322 321 319 319 320 318 322 324 317 315 318 319 320 320 319 319 318 318 316 313 312 311 312 313 312 313 312 313 314 314 318 322 326 328 318 312 312 313 316 315 318 323 318 316 317 315 315 315 315 314 313 314 316 316 315 312 311 311 313 314 315 317 318 318 317 318 322 325 327
323 323 323 323 324 324 324 325 324 323 323 323 324 324 324 324 323 323 321 319 317 316 317 318 318 326 325 315 315 319 317 317 319 320 317 316 316 314 313 312 310 311 312 312 313 312 314 315 315 321 321 321 322 316 314 316 315 318 317 315 319 316 314 317 316 315 314 314 314 314 313 314 316 315 312 311 311 313 313 312 312 314 316 316 315 318 323 326
323 323 322 323 324 324 324 323 323 323 323 323 324 324 323 322 321 320 317 316 316 318 319 318 320 327 324 316 316 317 315 316 319 317 314 314 314 312 312 312 312 313 313 314 314 312 314 315 317 321 320 317 319 315 312 314 315 318 318 316 318 318 316 317 319 317 314 314 314 314 313 314 314 314 314 312 311 312 312 311 311 311 314 315 315 316 320 325
323 322 322 323 323 323 323 322 323 323 323 324 323 322 321 320 320 318 315 316 317 318 318 318 320 319 316 315 314 314 314 315 317 314 311 312 311 311 311 312 313 314 314 315 314 313 314 316 317 319 319 316 316 314 311 310 311 312 313 314 316 318 317 317 319 316 313 314 315 314 314 314 313 314 314 312 311 312 312 312 311 311 312 313 315 316 319 323
322 322 322 322 323 323 323 323 323 324 324 323 321 321 322 321 322 320 316 317 317 314 315 318 318 313 312 312 312 312 313 313 314 312 310 310 310 311 312 312 314 315 314 314 313 313 314 317 318 317 317 316 314 312 310 309 310 309 311 312 313 316 317 316 316 315 313 313 315 314 314 313 313 314 313 311 313 313 313 313 313 312 311 311 313 315 317 319
322 322 322 322 323 323 323 323 324 323 323 322 320 321 321 320 319 319 317 319 317 313 313 317 316 311 311 312 313 313 313 312 312 311 309 309 310 313 313 313 314 315 314 313 313 313 315 317 316 314 314 314 313 312 309 309 310 311 311 312 314 316 316 315 314 314 313 313 316 316 313 313 313 312 312 312 314 314 312 312 313 313 312 311 311 313 315 317
322 322 321 321 322 323 323 323 323 323 322 320 319 320 319 317 317 318 318 319 318 313 312 316 316 311 311 313 315 313 312 313 312 311 310 309 311 313 313 313 314 313 313 314 314 315 316 316 314 313 313 313 314 312 311 310 310 312 313 313 315 316 315 314 314 313 313 312 315 317 315 316 314 313 313 312 313 314 312 312 312 312 313 312 311 312 314 316
323 321 322 322 322 323 323 322 322 322 321 319 318 318 317 316 317 318 316 315 317 313 311 314 313 311 311 313 315 315 313 313 312 311 310 310 311 312 312 313 313 313 313 313 315 315 315 314 313 313 312 312 314 312 312 312 311 313 314 314 315 316 315 315 314 313 313 312 313 315 316 317 317 315 315 314 312 312 312 313 312 312 312 312 312 312 312 315
322 322 322 322 322 323 322 322 321 320 320 318 317 317 317 317 318 317 313 313 314 311 311 314 311 312 312 311 313 314 314 313 311 311 310 309 311 311 311 311 312 314 313 312 314 315 314 312 312 312 312 312 313 313 312 312 313 314 316 316 314 314 316 316 316 314 313 314 316 314 314 320 323 319 315 314 313 312 312 312 313 313 312 312 313 313 313 313
322 322 322 322 323 322 321 321 320 319 318 316 316 316 317 317 317 315 314 316 314 311 314 316 312 313 313 311 311 312 314 313 310 310 310 309 310 311 311 310 311 313 313 311 312 314 313 311 311 311 312 313 313 313 313 313 313 313 316 317 314 314 318 319 317 316 317 318 315 312 314 321 322 319 316 314 313 313 311 312 313 312 312 312 312 312 312 313
321 322 322 322 322 321 321 320 318 319 318 316 316 316 317 317 315 314 317 319 317 313 314 314 310 312 312 311 311 312 315 313 310 310 310 310 310 310 311 310 310 310 311 311 311 312 312 311 311 311 311 312 312 312 312 313 312 314 320 321 318 317 321 322 317 318 321 317 314 314 315 317 315 315 318 314 312 314 312 311 312 311 311 312 311 311 312 313
321 322 322 321 321 321 321 319 317 318 317 316 315 316 316 314 314 314 317 319 318 314 313 311 309 311 311 310 312 312 312 312 312 311 309 310 310 309 311 311 310 310 310 311 313 313 312 311 311 312 312 311 311 312 313 314 313 318 325 322 319 318 321 322 316 318 319 314 318 320 315 314 319 324 323 315 313 314 314 313 312 311 311 311 311 311 312 312
321 321 322 321 321 320 319 318 317 317 316 315 315 316 315 313 314 315 316 317 314 312 312 311 310 312 311 310 311 312 311 312 314 311 309 311 310 309 311 311 310 310 309 310 313 313 312 312 312 311 311 311 312 313 314 314 313 318 324 322 322 324 321 318 319 321 316 313 321 323 315 313 320 328 325 315 313 315 316 316 314 311 310 311 312 311 312 314
321 321 321 320 319 318 318 317 316 316 315 314 315 315 313 314 315 317 317 315 312 311 311 310 311 312 311 309 309 311 311 312 312 311 311 311 310 309 310 311 311 313 314 311 313 317 313 311 313 313 313 314 314 314 316 318 317 318 322 322 321 325 323 324 330 326 315 317 326 325 318 312 315 325 323 314 316 317 315 316 315 314 313 312 312 313 313 315
320 321 320 319 317 316 317 316 315 315 315 315 315 314 314 316 317 317 317 314 312 312 310 311 312 311 310 310 310 311 312 312 311 311 312 311 310 310 310 311 313 317 318 313 314 318 313 311 314 314 316 318 315 314 316 321 321 318 324 324 319 325 327 327 331 322 314 322 327 323 318 313 314 322 322 316 317 316 314 315 316 318 317 314 313 314 316 318
320 320 320 318 316 316 317 316 314 314 315 315 314 313 315 317 318 318 315 313 314 312 311 313 312 311 311 310 311 311 313 313 311 311 312 311 311 311 311 313 312 314 315 313 315 316 313 316 316 312 313 316 316 316 314 317 319 317 322 321 316 322 323 321 323 320 318 322 318 314 315 314 315 318 318 317 316 315 315 313 315 317 316 318 322 322 322 323
319 320 318 317 316 316 316 315 314 315 315 315 314 314 316 317 317 317 313 313 315 312 312 313 312 311 311 311 312 312 313 314 311 311 312 312 312 311 313 315 313 317 317 314 315 315 316 320 317 312 312 314 315 315 314 318 317 315 317 317 317 321 319 317 320 318 317 320 315 311 313 316 317 316 316 316 313 314 314 310 314 317 316 321 325 325 324 324
319 318 316 315 316 315 315 314 314 314 314 314 314 314 315 316 316 315 312 312 313 311 312 313 311 311 310 311 312 312 314 313 310 311 312 312 313 311 313 313 311 319 321 316 314 315 317 318 316 314 313 313 315 315 318 322 319 318 321 319 320 325 322 319 321 320 319 320 316 310 314 321 321 317 316 315 313 315 314 314 317 319 317 318 319 320 323 324
317 316 315 314 315 314 314 315 314 314 314 313 315 315 316 316 315 313 311 310 311 311 312 312 311 311 311 311 311 311 315 314 310 311 312 312 312 311 312 311 310 317 319 315 314 314 314 315 316 317 314 313 316 317 320 320 317 320 322 319 317 323 325 320 319 325 324 321 317 312 316 324 320 313 313 313 314 315 315 315 318 320 319 318 321 323 323 325
315 314 314 314 314 313 314 315 314 314 313 313 315 315 314 314 314 313 311 310 311 311 312 312 311 312 311 311 312 312 313 314 312 312 312 311 312 311 312 311 310 314 315 314 315 315 315 314 315 317 313 312 315 316 317 317 317 317 317 319 318 318 324 320 314 317 318 316 318 314 315 322 317 313 317 316 314 316 315 316 317 319 319 319 323 325 323 324
313 313 314 313 313 313 314 314 314 313 313 314 315 315 315 313 313 313 311 309 311 311 313 314 313 312 312 311 312 312 313 314 312 312 313 312 312 311 311 312 311 311 312 314 314 315 319 317 314 315 314 313 314 316 316 316 317 318 317 319 318 314 320 322 316 316 315 315 320 316 313 319 317 315 323 320 314 316 317 315 314 314 315 318 321 321 321 321
313 313 313 313 313 313 313 313 314 313 313 314 314 315 317 315 311 311 311 310 311 312 313 315 314 313 312 312 312 312 313 314 311 312 313 311 313 313 310 311 312 311 312 314 313 315 320 319 314 313 315 315 314 315 316 314 313 316 318 318 317 316 317 319 318 318 314 313 321 321 314 317 317 318 323 318 316 319 316 312 312 313 315 317 319 321 320 318
313 314 314 312 312 313 313 313 314 313 313 314 315 316 318 318 313 309 310 311 311 313 314 314 314 313 312 312 312 311 313 313 311 312 312 311 314 314 310 311 312 311 311 313 314 316 318 321 317 312 313 314 313 314 318 316 312 314 315 312 315 319 319 317 316 319 318 315 322 321 315 319 322 321 322 316 316 319 314 313 314 312 314 315 317 322 323 320
314 316 314 312 312 312 312 313 314 314 314 314 314 317 318 319 314 309 311 312 311 313 314 313 313 313 312 312 311 311 313 313 311 311 313 312 312 311 310 310 312 312 312 312 314 315 313 318 320 314 311 314 315 316 319 317 314 314 315 313 313 315 315 315 315 321 324 320 321 318 317 331 332 319 318 315 313 315 313 313 314 311 311 313 315 321 322 322
315 316 314 311 312 312 312 314 314 314 314 312 311 315 318 315 312 310 312 312 312 315 315 313 312 312 312 312 311 311 312 313 311 311 313 312 310 311 311 310 311 312 312 311 313 315 312 315 321 317 314 316 320 320 319 317 315 315 316 316 315 315 317 316 315 319 320 318 323 320 317 334 337 319 315 315 313 314 312 312 313 312 311 312 316 319 320 321
315 315 313 311 312 312 313 315 315 314 313 312 311 315 317 313 310 310 312 311 314 318 313 311 312 311 312 311 311 312 312 312 311 311 314 312 310 312 312 311 311 311 312 313 313 317 319 321 324 321 317 318 320 318 314 315 317 316 316 316 315 316 319 318 317 320 318 315 320 319 313 326 337 326 319 318 316 316 315 313 312 311 310 312 316 318 316 315
315 314 312 311 311 312 314 316 316 313 313 315 315 315 315 313 309 310 312 311 315 317 312 310 311 311 312 311 311 312 311 312 312 311 313 313 310 314 315 312 312 311 311 313 313 317 320 322 322 321 320 321 322 319 313 312 315 316 316 316 316 315 315 320 326 326 322 317 316 315 312 321 336 331 323 321 317 317 317 315 312 312 313 312 315 318 315 313
314 313 312 311 311 312 315 316 316 314 312 314 314 315 315 313 311 311 312 313 316 315 310 310 311 311 312 312 311 312 311 312 312 311 315 314 311 317 319 313 312 312 311 312 314 314 316 318 319 320 320 320 321 320 314 312 314 316 319 318 316 314 314 319 322 317 317 322 319 315 314 320 331 329 321 319 317 316 318 316 314 316 317 315 315 317 316 315
313 313 312 310 310 313 315 314 313 314 312 311 313 316 317 315 314 313 311 315 321 318 312 312 313 312 313 312 312 312 311 313 314 313 315 315 313 317 318 314 312 311 310 314 314 312 317 321 318 317 317 315 317 317 316 317 317 318 321 319 316 316 314 316 318 314 315 321 318 315 317 320 324 323 318 317 316 316 317 316 314 314 317 318 319 318 318 318
314 314 313 311 311 312 313 312 312 313 312 311 313 317 317 316 317 316 313 315 320 321 318 316 314 313 313 312 312 312 311 314 316 313 314 316 317 316 315 314 314 312 315 319 316 315 323 324 316 314 315 314 316 318 317 319 318 315 318 318 317 317 315 317 321 317 317 320 318 317 316 316 318 317 315 318 317 315 315 315 314 314 318 321 320 319 318 316
315 314 313 313 313 313 313 312 312 311 311 311 313 316 317 317 316 315 315 316 318 320 320 316 313 313 313 312 313 312 311 314 316 314 314 317 317 313 311 313 314 314 317 318 315 318 323 320 315 315 314 315 322 323 317 316 316 314 316 318 318 318 316 317 318 315 317 320 316 315 315 313 314 314 314 317 316 315 316 317 316 315 318 322 321 319 317 315
312 313 313 313 314 314 313 313 312 311 311 312 313 315 316 317 315 314 317 318 318 319 318 315 313 313 312 312 313 312 312 314 314 313 316 317 315 312 312 312 312 314 315 312 313 320 320 315 315 316 314 316 323 321 316 316 316 314 315 316 317 318 318 317 316 315 317 317 312 313 316 315 313 313 314 314 313 314 316 315 312 311 315 320 320 320 319 317
311 314 313 312 313 313 313 312 311 311 310 312 315 316 316 316 315 316 319 319 317 317 316 315 314 314 313 313 313 312 313 313 313 313 315 315 314 315 315 313 312 314 315 312 314 318 318 318 318 315 313 315 318 318 316 317 316 314 315 315 315 316 317 315 314 314 315 315 313 313 316 315 312 313 314 313 312 313 314 313 312 311 316 320 320 321 320 317
310 312 312 313 312 311 312 312 310 310 309 312 315 315 315 316 316 318 320 318 316 317 317 315 315 314 313 313 313 313 312 313 314 314 313 313 314 315 316 315 314 314 315 313 311 312 313 318 318 314 313 315 316 318 317 316 316 316 316 316 314 315 315 314 314 314 314 314 313 313 315 313 312 313 314 314 315 314 313 315 316 314 314 317 319 319 318 317
302 301 305 312 312 310 311 311 310 310 309 311 315 315 314 314 316 317 317 317 318 318 316 315 315 314 313 313 314 313 312 314 315 313 313 313 314 314 315 315 314 313 314 314 313 313 313 314 314 314 316 315 314 318 318 315 314 315 316 317 315 314 314 313 314 314 314 314 314 314 314 311 313 318 317 315 315 315 315 317 317 314 312 315 319 319 318 317
299 300 305 312 313 310 311 311 310 310 309 310 312 314 315 315 316 317 316 317 320 319 317 315 314 313 313 313 314 313 314 316 315 313 313 313 312 315 317 315 313 313 315 315 316 317 317 315 315 316 317 314 313 316 318 316 314 315 315 315 313 313 313 313 314 314 313 313 314 314 312 312 316 320 316 313 314 316 317 318 316 314 314 314 317 318 316 315
Wind_Speed
36 40 42 43 45 46 46 47 48 47 47 46 45 44 46 45 43 41 39 36 34 33 32 30 28 26 24 22 21 19 18 17 16 14 10 6 8 8 7 9 9 7 6 5 6 7 5 6 6 7 10 8 4 4 4 2 1 3 2 2 2 3 4 4 6 6 4 5 8 7 5 8 6 3 2 4 7 5 4 5 2 5 5 4 6 20 35 31
36 41 42 44 45 45 46 47 49 49 47 47 46 44 44 44 43 41 39 37 35 34 32 30 28 26 24 22 20 19 17 16 14 14 14 12 11 9 7 9 10 9 8 8 9 9 7 5 6 6 6 3 2 3 3 2 0 2 2 2 4 5 5 5 6 6 4 6 9 7 6 7 8 6 4 4 2 3 6 4 3 5 6 6 12 26 32 29
37 41 41 43 44 44 46 46 49 51 48 47 47 44 43 43 42 41 39 37 35 34 33 30 29 26 24 23 20 20 16 12 7 9 17 19 15 10 8 10 11 11 9 9 12 11 10 8 6 4 3 3 2 2 3 2 1 1 3 1 5 5 4 5 6 7 5 6 11 8 6 6 7 6 3 6 6 4 5 3 2 4 4 7 13 23 28 27
38 40 41 43 44 44 44 45 49 51 50 46 45 44 42 42 41 40 38 37 35 33 32 30 29 27 25 23 20 20 14 7 3 8 17 21 21 17 10 10 12 12 12 12 14 15 15 13 9 4 2 2 3 2 1 2 1 1 3 4 6 4 3 6 4 5 5 4 10 9 6 7 6 3 4 9 8 3 6 8 7 9 11 10 11 19 25 24
40 41 41 43 45 46 44 45 49 50 49 47 46 43 41 41 40 39 39 37 35 33 32 30 29 27 25 23 20 20 13 3 5 14 20 21 23 22 14 12 13 13 15 16 17 18 18 13 7 3 2 1 3 3 2 3 0 1 3 5 6 3 3 7 3 2 2 2 5 10 8 7 5 2 6 12 9 6 7 8 10 13 15 15 16 19 21 22
41 41 42 44 45 48 45 45 50 49 47 46 47 46 42 41 39 39 39 37 35 33 32 31 29 28 25 23 22 21 12 1 4 15 24 23 22 21 18 16 16 17 17 19 20 18 14 8 5 3 2 1 2 2 3 5 2 3 5 4 5 4 3 5 3 2 4 7 7 9 7 6 7 3 6 11 9 7 7 9 10 13 18 21 21 20 18 18
42 42 44 46 46 48 45 44 50 52 50 48 47 46 44 42 41 40 39 38 36 34 33 31 29 28 26 24 21 15 7 4 3 10 24 26 24 22 21 20 20 20 20 22 19 13 9 7 5 4 3 2 1 2 4 7 4 4 5 5 4 4 4 4 3 2 4 8 7 5 6 8 10 5 5 8 8 6 5 8 12 14 19 21 18 17 18 20
43 43 45 48 48 48 46 45 50 52 51 50 47 46 44 42 42 41 40 39 37 35 33 31 30 28 29 25 15 7 5 6 1 6 23 29 26 26 24 22 20 20 22 22 19 14 9 8 6 4 3 4 1 2 5 8 5 3 6 5 3 2 3 5 5 2 5 4 1 5 6 8 9 5 5 7 8 5 2 8 12 14 16 16 15 15 17 19
44 46 47 49 49 48 47 46 50 51 50 49 49 47 45 44 43 41 39 39 37 36 33 32 31 29 30 22 9 4 6 9 4 6 25 32 30 30 26 23 21 20 21 20 21 19 9 5 5 3 4 4 1 1 4 6 4 2 5 6 3 3 3 3 4 2 4 3 4 7 4 4 3 1 4 7 7 3 4 10 12 13 13 13 13 14 16 17
47 49 49 49 49 49 49 48 50 51 49 48 48 48 46 45 43 41 40 39 37 36 34 32 31 30 27 17 8 4 5 8 5 9 28 34 33 32 27 25 24 22 20 18 19 16 7 8 9 6 6 3 1 1 4 3 4 5 7 6 4 3 2 1 1 4 1 2 4 7 4 4 4 2 4 7 5 4 7 10 11 13 13 13 11 13 17 18
49 50 49 48 48 50 49 49 52 54 51 48 47 47 46 44 42 41 39 39 37 35 34 32 32 31 25 14 9 5 4 8 6 13 28 32 31 31 28 28 26 25 23 18 15 14 14 19 18 10 5 2 1 2 6 5 4 9 7 4 4 3 2 1 1 5 1 2 3 7 3 4 5 1 6 7 5 6 9 11 11 12 12 12 12 11 14 17
52 51 49 48 49 51 49 48 52 55 53 50 47 46 46 44 42 41 40 38 37 34 33 32 33 30 20 9 6 4 4 9 10 16 27 30 30 28 27 29 26 25 26 18 12 16 21 24 20 9 3 4 3 0 4 6 7 9 5 3 4 4 3 3 3 3 1 2 4 7 3 4 3 6 8 5 7 6 9 11 11 11 10 10 11 9 11 15
54 53 52 51 51 52 51 48 49 50 51 50 48 46 45 44 42 41 40 38 36 35 33 33 33 28 17 4 3 5 5 11 16 19 25 28 26 23 25 26 22 21 24 22 17 16 17 18 17 9 4 6 2 1 4 8 8 8 4 3 1 2 4 6 3 2 1 2 2 5 2 5 8 10 9 3 7 8 7 9 10 9 8 8 9 8 9 13
57 55 55 54 53 54 53 51 49 48 49 49 47 47 45 44 43 42 40 39 36 35 34 35 31 23 13 2 2 6 6 11 19 23 26 26 22 19 21 21 17 17 21 25 21 14 14 17 17 10 3 4 2 3 8 8 4 5 3 3 2 2 4 6 2 5 4 2 2 4 4 6 8 11 8 4 7 10 8 9 9 8 8 7 8 8 9 12
59 58 57 55 55 55 55 54 52 52 51 49 47 47 45 44 43 41 40 38 35 34 35 32 25 15 6 1 2 7 8 11 19 26 26 27 24 19 20 18 15 18 21 24 21 13 14 18 14 6 1 2 4 4 6 5 3 3 3 3 1 4 4 6 2 7 7 1 2 5 4 5 7 9 7 6 8 9 10 9 9 8 9 8 8 9 8 10
61 60 58 57 57 56 58 58 56 55 52 49 48 47 46 44 42 41 38 36 34 34 33 25 16 11 4 1 4 8 9 9 18 25 25 27 26 23 24 20 18 21 20 19 19 13 13 12 6 3 2 2 5 4 3 5 4 2 2 3 2 4 3 3 2 5 6 3 0 2 3 3 5 7 5 6 10 10 9 9 9 9 9 9 8 8 8 8
62 61 59 58 57 58 60 60 60 59 55 51 50 48 46 43 41 39 35 34 33 31 27 19 14 9 2 1 4 8 8 9 17 25 24 24 25 28 28 16 15 20 18 16 18 11 6 5 2 2 2 2 5 4 2 5 5 3 1 3 3 3 3 2 3 4 3 4 4 4 3 5 6 6 4 5 9 9 9 9 10 9 8 8 7 7 8 8
63 61 59 58 57 59 60 60 61 61 59 56 52 49 47 44 43 38 35 35 29 21 16 13 14 7 3 6 5 7 12 14 20 26 23 20 22 28 26 14 14 18 15 10 10 6 2 2 2 3 2 3 6 7 6 6 5 3 2 3 3 2 3 3 4 4 5 4 5 6 5 9 10 6 4 4 6 8 10 9 9 9 9 8 7 7 8 9
62 60 60 58 58 58 59 60 59 58 62 59 54 53 48 40 35 31 33 33 20 10 6 8 13 6 3 10 8 10 17 19 21 23 21 19 21 22 18 17 16 14 10 5 5 4 2 3 3 4 7 8 10 11 8 5 5 4 3 3 4 3 3 4 5 5 6 5 5 7 7 11 12 8 5 5 4 6 8 7 6 7 7 7 7 8 9 10
61 62 61 59 60 59 59 61 57 57 61 61 57 45 30 22 16 12 16 20 15 7 4 11 12 2 4 9 12 16 18 18 18 17 20 23 23 18 11 12 11 6 8 8 6 5 3 5 7 8 10 11 12 11 7 8 9 5 3 3 3 4 4 4 4 5 3 5 6 8 9 11 11 9 7 4 2 5 8 8 7 7 7 8 9 10 10 11
62 63 62 60 61 59 60 61 59 58 57 64 59 28 15 18 11 13 15 10 11 7 5 14 11 2 7 14 22 25 15 10 11 12 20 25 23 17 7 8 9 4 6 8 7 4 3 7 9 7 7 10 12 11 8 10 11 6 4 5 5 4 5 5 3 3 1 4 6 6 7 11 10 9 6 4 4 8 10 9 9 10 9 8 9 11 11 9
63 62 64 64 61 60 63 62 61 60 53 54 44 15 13 14 7 25 26 6 6 7 7 17 10 3 10 16 25 28 13 6 8 9 18 20 16 12 6 8 10 6 7 9 6 4 5 8 6 5 6 7 10 10 8 9 8 5 4 4 5 4 3 5 3 2 0 3 4 3 6 10 10 10 7 5 7 9 10 11 11 11 10 9 10 11 10 9
62 63 66 64 63 64 65 64 64 61 49 39 25 11 14 15 20 39 28 8 6 5 5 13 7 3 11 10 19 24 14 11 11 10 18 18 11 10 9 10 11 8 9 10 9 8 6 7 6 6 7 9 11 11 9 8 6 4 4 4 4 3 2 4 3 1 1 1 1 3 4 7 7 7 6 7 9 8 8 10 10 9 10 12 11 10 11 12
60 65 66 66 66 64 65 67 63 55 48 35 19 14 21 32 43 45 22 7 5 2 1 7 1 4 9 8 18 19 9 8 10 13 21 18 9 8 10 11 11 9 9 12 12 10 6 5 9 10 10 12 12 11 10 7 5 4 5 6 5 4 5 5 2 2 1 2 2 4 1 5 6 6 8 7 7 8 7 8 9 9 10 10 8 8 11 12
64 67 67 67 66 65 69 64 50 49 46 27 15 21 33 41 48 44 23 5 3 3 3 6 3 2 7 8 17 13 6 3 7 14 21 19 12 9 8 7 8 9 11 12 10 7 6 6 12 14 13 13 12 11 11 7 5 5 5 8 10 9 7 4 3 4 2 3 2 2 1 6 5 6 9 7 6 8 7 7 11 12 11 9 8 10 11 10
70 70 69 68 66 70 62 38 35 48 36 16 21 33 40 44 43 38 19 4 2 1 6 9 3 7 10 8 12 10 8 3 3 12 18 16 12 9 8 4 3 7 12 10 6 4 6 7 13 15 14 14 12 11 11 8 5 6 5 7 10 9 6 6 6 5 3 4 3 2 5 6 5 5 9 7 7 9 6 7 11 11 10 9 10 12 10 9
68 72 74 69 69 70 42 19 36 43 20 16 34 39 40 45 39 23 10 3 4 3 6 6 2 13 14 8 12 10 7 6 4 8 12 11 8 5 8 8 4 7 9 7 4 3 7 9 11 14 12 12 11 9 11 8 6 5 4 5 7 7 8 8 9 6 4 3 3 2 3 4 5 6 7 3 4 9 8 8 11 11 11 11 12 12 10 11
64 72 74 71 77 69 39 34 42 27 17 31 44 42 40 40 28 11 6 5 4 4 6 2 3 14 10 5 11 5 4 9 8 7 8 7 6 3 7 10 8 11 10 9 6 2 7 11 12 14 11 8 8 8 10 8 5 7 4 5 4 4 6 7 8 4 1 2 3 4 2 3 6 6 5 1 3 9 9 10 12 13 14 14 13 12 11 11
66 71 72 76 73 51 38 50 42 22 31 44 43 43 35 22 13 5 4 6 3 4 6 6 7 11 7 7 9 2 4 7 5 7 6 5 5 1 6 9 8 13 11 9 8 2 4 8 10 13 10 7 7 9 11 9 5 5 4 5 2 3 3 3 5 3 2 2 5 6 4 3 5 6 3 1 3 7 9 9 11 13 14 13 12 12 11 9
72 70 72 75 55 34 35 40 34 32 43 46 41 40 26 9 7 6 6 6 4 4 4 5 7 10 13 13 6 3 7 3 2 8 6 2 2 2 2 3 5 8 5 4 7 3 1 0 2 6 6 6 7 7 8 9 5 3 5 5 4 4 4 3 2 3 2 3 6 6 4 3 4 5 4 4 5 6 7 8 8 9 10 11 11 10 9 9
75 72 73 66 43 39 36 21 28 44 47 46 42 32 16 4 2 7 8 6 6 4 4 5 5 9 17 17 7 5 6 3 5 13 8 3 2 1 3 3 3 4 3 3 4 2 3 2 1 1 2 4 6 4 2 3 4 4 3 4 2 2 3 3 3 2 2 5 6 5 2 3 5 5 5 6 6 5 7 7 9 9 9 9 9 8 8 8
72 76 73 55 42 45 36 24 40 52 50 49 36 17 9 5 2 4 6 7 6 6 8 11 11 12 18 16 9 6 5 3 7 13 12 8 5 5 6 6 5 5 5 6 3 1 1 1 1 1 1 3 6 5 2 2 3 4 3 5 4 2 1 1 2 1 3 5 4 2 1 3 6 7 8 9 10 9 8 8 9 9 8 8 7 7 7 6
71 75 65 47 42 40 36 41 52 54 52 46 24 6 6 9 8 5 6 8 8 10 12 13 14 15 17 13 7 6 4 3 8 10 9 8 7 6 5 6 8 7 5 6 6 3 2 4 2 1 1 2 6 7 4 3 4 5 5 5 5 3 3 4 3 1 4 4 3 2 1 3 4 5 10 14 14 11 7 8 9 8 9 8 6 6 5 5
70 66 51 41 42 39 42 52 53 54 50 32 14 8 8 9 7 5 8 7 6 11 12 12 14 14 13 10 7 7 3 1 7 10 8 7 8 8 7 7 9 6 4 5 5 6 6 4 3 4 1 1 5 5 6 6 5 5 4 5 5 4 4 5 3 3 4 3 3 2 1 3 3 4 8 10 11 8 4 7 7 6 6 4 2 3 4 5
65 56 43 37 38 40 50 56 53 53 40 16 9 11 11 11 8 7 10 7 8 12 12 15 17 13 10 6 4 7 4 2 5 7 8 10 9 10 9 7 8 5 6 6 3 3 7 4 3 2 1 2 4 3 4 7 5 4 3 4 5 5 4 2 2 5 3 1 3 2 3 4 4 6 8 5 7 8 5 5 4 5 4 2 3 4 5 5
52 41 36 32 32 40 52 56 53 47 29 12 9 10 9 8 7 9 10 10 12 16 17 16 14 12 10 4 3 8 3 3 8 6 6 8 7 10 9 7 8 7 7 8 3 2 6 3 4 2 1 0 2 2 1 4 4 2 3 4 5 3 6 3 2 1 3 2 3 1 3 5 3 7 9 4 5 8 5 4 4 5 4 3 6 6 5 5
37 28 25 25 31 40 49 54 51 37 19 11 11 10 5 1 3 7 9 12 16 18 19 14 9 11 12 8 9 12 5 4 8 8 6 6 5 10 11 7 8 10 7 6 3 3 5 2 3 1 1 2 0 1 3 2 2 4 4 6 3 2 3 3 2 1 2 4 4 0 4 5 2 4 7 7 5 9 7 5 5 5 4 5 6 5 5 5
28 23 16 21 36 40 43 50 44 24 10 9 10 8 2 1 3 9 13 16 18 19 17 12 8 10 12 12 11 13 11 8 9 8 7 7 5 8 14 8 6 10 8 5 3 3 4 2 3 1 2 3 3 2 1 3 2 3 4 4 4 3 3 1 3 2 1 4 4 3 4 4 3 5 5 6 7 9 8 5 5 6 7 7 7 6 6 5
23 17 7 17 37 39 42 45 30 13 7 9 9 6 2 1 4 11 17 18 17 17 14 11 10 8 10 12 11 11 10 8 11 7 5 8 5 6 14 9 5 10 9 7 5 3 4 4 2 2 1 2 3 1 4 1 2 2 2 2 1 2 4 3 3 3 3 4 3 4 3 3 5 6 6 9 11 9 8 6 7 9 9 8 7 6 6 5
13 9 4 19 36 38 42 33 15 8 9 9 6 4 2 2 5 13 20 20 14 8 9 11 12 11 10 10 11 12 8 6 11 7 3 7 4 4 10 10 7 10 8 6 5 3 3 3 2 2 2 1 1 2 6 6 3 2 2 3 2 1 2 1 1 3 3 3 3 2 3 5 6 5 8 12 11 7 6 7 9 9 8 8 7 6 6 6
7 6 4 21 37 39 35 19 7 10 8 5 4 3 2 4 8 15 18 19 12 3 5 12 13 12 11 11 11 11 7 6 10 8 3 7 7 3 7 10 11 10 7 4 6 4 2 3 4 2 1 2 4 5 5 6 5 5 5 5 5 4 4 3 4 2 2 2 4 3 3 7 6 4 7 9 7 5 5 7 9 8 8 8 7 7 7 6
7 7 6 26 42 40 26 9 8 9 5 5 4 2 3 6 10 13 12 12 9 3 4 9 11 12 11 12 13 11 9 7 9 9 4 7 9 5 6 11 13 14 11 6 5 4 3 4 4 2 3 4 6 5 3 1 1 3 4 4 6 6 5 5 6 3 0 1 2 3 3 7 6 4 6 6 6 6 5 6 7 7 7 8 7 7 7 6
5 7 10 28 41 32 17 8 8 6 3 3 2 3 3 5 10 13 10 9 6 4 6 6 9 12 10 10 13 13 12 8 9 12 6 5 8 5 7 13 14 14 12 6 4 3 3 4 4 1 3 3 4 5 2 3 2 2 5 1 4 6 5 5 5 3 3 3 2 2 6 7 6 4 4 5 6 6 6 5 6 7 5 6 7 7 6 5
6 6 7 18 30 23 10 7 10 10 8 4 3 3 1 4 10 13 12 10 5 6 8 6 8 9 7 9 13 15 15 8 7 9 5 5 6 1 5 14 16 15 11 8 8 6 3 3 4 3 1 3 4 5 3 1 2 1 3 2 2 3 5 3 2 3 2 5 5 5 6 6 5 5 3 5 6 6 7 5 5 6 5 6 7 5 5 5
9 5 3 7 15 13 6 3 6 9 11 9 8 5 2 2 5 9 14 11 3 6 8 5 8 9 7 9 9 12 13 7 5 6 3 5 4 3 1 11 16 14 9 8 10 7 5 5 5 6 7 7 6 5 5 4 1 2 3 3 4 5 7 5 3 3 5 4 5 5 7 6 6 6 6 6 6 5 7 6 4 5 5 5 5 5 5 5
9 5 4 5 4 5 4 1 2 7 11 10 7 5 5 6 1 1 9 8 2 6 7 5 9 10 8 13 11 10 12 3 3 6 5 6 4 2 1 7 9 6 4 9 13 8 4 4 6 9 10 10 7 4 4 8 6 6 6 5 7 6 7 6 4 5 6 2 3 8 9 7 7 7 7 8 7 6 7 6 5 5 5 5 5 5 5 5
6 7 10 9 5 6 6 1 3 8 12 10 6 4 7 10 7 2 3 2 2 7 6 4 11 12 12 17 13 11 13 4 4 8 8 5 3 1 1 4 4 1 2 8 11 7 4 4 8 10 9 7 6 6 8 11 10 11 9 8 8 7 7 7 7 9 5 3 9 12 7 7 9 7 8 10 8 7 6 7 7 6 5 4 4 4 5 5
3 5 6 4 5 9 11 11 12 13 13 10 4 4 9 11 12 9 3 1 3 7 5 3 12 17 19 20 13 10 11 5 3 8 7 4 4 3 4 4 3 2 1 5 6 5 5 6 7 7 6 4 5 7 10 12 11 11 13 13 12 10 11 11 13 12 8 7 15 11 5 10 9 6 11 12 8 8 7 7 5 3 4 4 5 5 6 7
3 3 1 3 1 6 9 10 13 14 14 10 3 5 12 15 15 10 3 4 6 6 6 8 12 15 19 18 13 12 14 11 7 7 7 6 6 5 4 3 1 2 4 6 3 2 5 5 4 7 6 3 4 6 9 10 8 8 11 15 14 14 16 18 18 17 13 14 17 8 9 16 10 9 13 10 6 6 5 3 2 5 6 6 7 7 7 7
2 3 3 1 2 6 10 10 10 10 10 8 4 5 10 16 17 9 2 8 13 8 6 12 15 14 17 17 13 13 17 16 12 10 10 10 7 5 4 4 3 2 4 5 3 1 3 4 3 6 5 3 4 5 7 9 8 7 9 12 14 15 17 18 17 14 10 14 16 10 13 17 7 7 10 8 3 2 2 4 6 7 7 7 7 8 8 9
2 0 2 4 3 7 11 10 9 10 9 8 6 5 8 13 15 11 2 1 9 10 9 15 17 13 13 16 15 16 17 14 15 15 15 15 13 8 4 5 8 7 4 4 4 3 3 3 2 5 5 6 4 4 7 6 3 4 9 13 15 14 13 13 11 9 10 14 15 12 14 12 2 5 9 9 5 4 5 8 8 7 6 8 9 9 10 11
3 3 2 4 4 5 11 10 8 10 10 9 6 3 5 8 7 9 6 3 4 5 8 16 18 12 11 15 17 15 13 11 12 13 11 11 11 7 4 8 14 13 9 6 3 2 5 5 3 5 6 5 2 3 6 6 3 6 12 14 16 14 11 9 8 10 13 13 11 12 13 6 5 6 10 7 5 7 9 10 9 7 7 8 9 11 12 12
Wind_Direction
226 220 214 211 211 209 206 201 196 195 194 190 189 189 189 189 190 192 193 193 194 192 191 193 191 192 191 191 192 190 191 191 191 192 187 179 185 182 180 183 185 192 179 171 164 137 88 43 17 345 345 353 11 338 333 326 31 61 85 132 197 192 199 193 177 194 177 185 193 201 199 141 146 178 157 59 56 82 75 30 28 18 29 158 162 156 162 166
226 221 213 209 209 208 205 202 198 195 193 190 189 190 188 186 188 190 190 191 192 191 190 190 190 190 189 188 187 187 187 184 186 194 197 187 175 174 184 187 186 189 181 178 171 135 103 60 24 8 5 358 335 333 340 324 72 116 128 161 220 200 209 204 184 205 186 181 180 173 181 157 157 168 144 117 130 127 96 21 6 53 49 92 133 148 159 166
226 223 215 209 207 205 204 203 198 193 190 188 187 188 187 185 186 187 188 189 191 190 189 189 189 187 187 184 180 181 173 159 174 202 202 198 190 183 181 186 181 180 182 178 174 159 137 109 73 46 16 357 321 328 354 322 276 183 147 201 242 212 238 237 185 212 234 183 163 168 178 163 171 167 132 135 153 170 152 169 135 118 126 121 137 149 158 166
225 221 216 213 209 205 203 202 197 191 187 186 185 186 186 184 184 186 187 188 189 188 188 188 188 186 184 180 175 173 151 125 209 205 195 196 199 198 188 180 170 169 174 160 156 153 136 110 87 69 44 3 314 327 334 272 252 233 169 199 234 193 244 254 209 223 253 202 168 156 140 161 187 169 133 136 137 218 218 201 181 165 162 149 150 154 160 168
225 221 217 214 212 206 200 200 196 187 184 185 184 185 185 183 183 184 186 187 188 187 187 186 186 185 181 177 172 162 136 89 226 196 191 186 188 193 188 176 161 162 165 149 138 130 123 108 95 76 61 81 330 343 283 286 79 241 233 218 229 173 226 261 278 240 172 125 151 143 150 168 165 139 156 153 160 217 216 205 189 165 162 160 160 160 164 170
226 221 215 209 209 206 200 199 195 186 185 186 185 186 186 185 184 184 185 186 186 186 186 185 184 181 177 172 169 162 149 180 192 188 195 186 181 182 175 168 153 156 157 142 132 123 118 99 93 106 84 108 334 312 286 318 338 268 273 259 248 195 219 277 329 299 137 133 165 165 168 146 135 172 183 173 187 219 207 187 178 168 165 162 158 161 166 173
225 220 213 207 205 203 198 197 195 190 188 187 186 185 185 185 184 184 184 184 184 184 183 182 180 176 171 164 164 168 178 221 154 178 196 189 185 179 170 167 155 155 152 137 129 127 128 111 117 124 107 145 222 304 324 326 307 263 268 285 276 200 212 277 327 316 154 165 193 164 139 146 163 174 166 195 217 236 224 171 160 161 158 156 157 166 173 177
223 219 214 209 207 202 195 194 193 190 187 185 184 183 182 182 181 182 181 181 181 181 181 179 176 172 168 161 156 170 203 224 189 172 191 185 181 176 168 163 158 159 155 148 142 140 133 123 140 126 135 180 164 349 350 336 306 230 241 261 277 226 247 292 327 25 139 175 187 126 147 171 180 161 152 210 232 243 205 144 146 147 149 158 167 173 177 180
222 216 210 206 207 203 196 193 188 185 184 182 182 182 182 181 180 180 179 179 178 179 179 176 175 172 169 160 138 160 205 220 246 187 182 178 174 173 171 163 158 159 157 157 153 148 143 140 162 136 146 170 54 346 9 347 295 227 255 258 245 247 271 312 327 19 115 149 143 141 169 206 215 171 179 216 221 210 120 136 145 146 157 170 175 178 180 183
219 214 207 202 204 202 199 194 186 184 183 181 181 181 180 179 178 178 177 177 177 178 177 176 175 171 168 156 132 178 209 204 217 188 178 175 170 170 174 170 160 158 154 155 160 162 157 146 149 126 107 87 357 294 358 312 263 307 296 265 245 240 252 69 331 304 40 121 160 152 176 264 312 360 210 231 208 144 116 139 153 154 167 177 179 185 184 187
216 213 206 202 203 200 199 196 188 184 183 180 180 180 178 177 176 176 176 176 176 176 176 176 173 170 168 157 155 189 191 175 181 178 176 176 173 171 176 172 162 159 153 147 159 160 139 135 134 120 102 99 167 327 322 273 274 312 295 252 284 314 294 122 139 283 308 123 161 135 132 308 343 339 224 221 179 147 135 147 163 166 174 180 182 188 189 194
212 209 203 201 200 196 195 193 184 178 179 180 179 177 176 175 174 174 174 174 174 174 174 174 172 170 163 152 176 177 154 171 174 174 176 177 175 175 177 171 164 163 156 140 135 137 132 137 135 114 129 139 126 326 300 290 308 306 270 211 300 348 302 232 174 260 248 171 184 132 98 300 254 232 243 212 159 153 147 156 171 177 179 182 186 189 195 201
207 204 200 198 197 194 191 189 182 174 175 177 176 174 173 173 173 172 171 171 170 169 170 169 169 168 157 143 194 163 145 164 171 172 173 174 170 169 171 166 165 171 160 140 126 124 128 142 135 105 110 126 121 267 315 309 303 295 261 190 273 4 283 246 172 150 168 202 193 142 178 254 236 235 250 226 155 146 151 170 178 183 185 185 190 193 202 203
203 202 198 195 195 193 189 188 186 180 177 176 173 171 171 172 171 170 169 168 165 164 165 165 166 165 159 157 188 169 151 152 167 170 169 170 163 159 165 162 167 174 158 137 124 114 121 134 124 95 78 116 104 344 336 314 283 287 255 192 174 170 256 273 184 142 168 228 88 132 203 253 248 238 234 196 163 158 168 186 186 188 190 189 194 198 207 206
200 200 196 194 193 191 189 187 184 181 178 174 171 169 169 169 169 168 167 164 162 163 163 164 164 159 153 292 195 173 150 145 169 170 169 170 158 153 162 157 156 158 147 135 125 112 123 129 118 94 92 107 79 35 331 302 288 277 224 237 219 172 257 297 241 162 169 229 66 142 210 268 258 251 235 178 171 174 178 192 194 194 195 194 199 202 209 213
196 195 193 191 191 190 186 184 181 178 175 173 171 168 166 165 164 164 163 159 157 160 160 161 164 153 139 176 166 166 153 159 179 173 168 170 162 155 157 143 130 137 132 125 125 120 124 122 101 84 116 101 83 72 309 295 299 281 200 234 218 171 233 298 270 208 176 153 147 184 217 260 262 281 276 178 177 182 182 196 201 201 202 198 201 205 207 214
191 191 188 188 190 188 183 181 178 175 173 171 168 164 160 160 159 157 155 151 150 153 154 154 153 141 114 137 159 176 171 166 176 172 166 171 166 155 153 136 115 124 116 111 123 121 106 103 104 106 84 94 108 112 236 247 257 289 316 226 226 187 191 218 271 258 176 159 202 211 228 244 261 297 292 195 179 183 190 199 204 205 208 204 204 208 210 211
187 186 185 184 186 185 181 177 173 171 169 167 164 160 156 155 153 148 141 139 135 134 138 140 141 144 239 199 177 170 165 160 166 169 167 171 168 157 153 141 123 123 110 105 124 121 40 45 108 125 131 161 157 170 198 211 214 218 201 211 240 232 205 214 237 214 164 175 205 195 232 254 264 287 275 232 185 185 205 206 207 210 208 210 206 209 213 213
183 183 182 180 179 179 175 170 169 168 165 162 159 153 147 145 143 137 135 136 134 130 144 169 164 166 213 183 168 139 150 155 158 165 165 167 166 156 147 140 135 130 127 129 142 151 120 91 124 163 183 187 181 189 202 227 224 201 207 202 182 202 238 226 240 238 174 165 213 199 218 244 249 258 244 236 195 193 227 228 220 218 212 217 212 215 216 214
181 180 178 176 175 174 170 167 167 167 163 155 150 143 139 140 132 127 141 152 161 147 146 183 175 118 74 141 137 128 141 149 152 166 169 166 158 144 134 137 134 133 146 148 154 169 144 156 194 195 188 183 179 192 215 248 253 260 297 290 218 209 248 238 240 272 176 160 223 208 216 239 241 249 238 219 201 222 240 235 228 223 214 216 214 218 217 217
179 177 175 172 172 170 167 165 163 164 160 153 150 147 152 157 154 162 162 168 162 91 65 176 178 45 124 140 141 137 134 143 151 168 169 164 154 142 150 151 137 149 157 141 137 143 159 190 206 193 176 176 182 200 225 246 252 253 266 286 279 236 244 255 235 278 167 171 235 210 219 248 247 254 251 167 182 229 228 220 224 223 218 219 217 221 220 223
178 176 173 170 170 168 165 162 159 159 159 156 154 156 162 160 158 153 145 123 145 50 33 173 181 25 124 142 151 143 124 128 146 168 172 165 157 155 170 159 149 157 152 138 127 134 195 212 199 159 165 181 198 219 241 258 255 238 238 251 266 250 249 281 280 293 81 179 249 203 205 250 253 250 247 181 198 233 225 214 219 217 216 220 217 220 222 226
177 174 170 171 169 166 164 160 157 157 161 165 161 155 157 145 133 137 126 80 135 36 23 169 177 95 123 137 159 148 133 154 160 176 179 169 166 166 159 160 158 151 155 163 161 162 196 210 175 163 181 188 206 229 251 271 263 235 226 224 249 246 200 259 272 224 152 153 201 156 192 258 264 260 258 220 216 241 236 224 229 223 218 221 219 217 215 216
173 171 170 170 167 165 163 157 155 157 164 170 163 154 148 141 139 133 112 71 128 24 168 165 68 138 146 140 166 163 141 157 160 169 179 172 160 160 159 160 153 151 170 177 174 178 193 169 162 180 195 196 202 217 233 248 253 245 222 216 241 237 213 236 242 138 51 339 111 110 1 284 252 248 260 241 223 242 244 230 241 244 234 235 242 236 223 216
172 170 168 166 165 164 158 153 154 160 163 164 155 151 147 147 145 132 110 84 109 16 167 155 16 188 173 143 164 167 110 134 171 169 179 175 158 150 161 160 149 165 177 171 171 191 217 177 165 182 195 199 201 207 221 222 228 255 230 215 227 230 227 218 156 110 96 278 252 134 260 278 269 244 246 245 231 239 236 222 233 241 238 235 243 240 230 226
171 168 165 164 162 158 152 149 158 159 157 156 154 153 152 152 147 132 110 57 119 83 164 160 153 179 176 159 159 140 117 176 201 163 174 178 168 150 154 154 134 173 171 167 174 189 215 189 168 182 189 192 202 209 217 210 205 244 237 218 225 219 198 171 160 145 161 234 270 156 195 259 303 258 239 241 241 249 247 234 237 239 237 228 227 232 227 225
168 164 163 162 160 156 152 148 157 157 155 157 155 155 156 154 151 137 98 59 158 161 163 161 165 170 173 177 161 140 147 166 105 154 178 179 173 142 154 163 139 168 167 164 198 192 188 182 175 189 186 186 201 203 209 202 188 235 248 209 208 188 177 176 173 181 197 215 315 8 164 238 277 255 250 239 236 262 262 246 246 242 238 232 229 231 224 221
166 161 160 162 161 161 158 149 153 160 160 154 153 158 161 157 156 143 101 142 164 133 156 157 138 163 161 151 163 153 137 143 129 176 196 182 179 130 162 182 161 166 172 169 190 206 178 181 184 191 190 195 197 188 198 192 191 236 223 171 188 180 177 178 172 181 153 143 270 290 161 200 265 272 295 334 217 259 261 241 240 237 234 232 231 230 226 224
165 161 160 161 161 161 157 152 154 156 151 150 153 160 161 155 149 116 120 170 143 117 154 140 140 158 144 142 174 177 113 146 159 165 165 189 212 120 165 186 163 165 181 182 182 197 193 190 183 183 194 203 180 175 190 192 209 234 157 117 59 45 73 114 151 141 79 163 232 240 191 194 266 279 298 309 230 248 254 243 235 234 235 233 231 231 228 227
165 163 160 158 155 150 147 148 149 148 148 151 155 157 151 137 139 143 178 180 135 147 155 140 162 164 155 160 179 162 143 160 147 134 137 191 209 10 116 134 120 149 177 184 181 207 302 307 173 176 191 189 169 171 188 195 197 152 115 92 47 36 44 44 77 100 118 242 247 239 213 191 261 276 240 219 222 221 236 256 252 240 237 233 230 229 224 221
164 161 159 157 153 146 144 139 145 149 149 152 155 153 140 85 129 158 176 160 122 150 149 143 167 154 160 168 167 164 151 113 140 149 160 190 147 108 129 118 99 116 125 162 195 293 20 68 177 191 173 144 140 147 148 168 165 140 128 117 94 349 12 20 358 48 182 244 260 251 215 174 225 262 242 238 258 237 224 248 258 251 244 239 234 228 220 214
160 159 160 158 151 149 149 147 149 150 152 153 152 154 145 122 171 173 157 147 149 179 170 162 168 164 168 168 154 157 143 125 166 162 162 168 172 184 179 182 170 148 173 180 177 330 28 197 250 327 282 136 139 153 124 90 144 163 155 137 161 261 358 218 261 262 224 246 265 254 199 201 229 250 259 266 271 257 231 231 250 261 264 257 240 224 215 203
157 156 157 155 150 150 150 147 148 151 155 156 151 152 152 154 179 172 149 166 174 171 164 161 162 159 162 160 152 157 135 146 177 164 158 155 163 199 224 210 180 160 173 168 150 162 219 284 297 140 261 201 162 168 170 165 168 177 168 154 180 183 149 210 238 278 259 259 270 270 245 258 270 261 251 251 259 264 250 239 244 253 264 261 243 220 207 199
153 152 152 151 150 150 148 146 150 155 156 158 155 150 156 170 175 132 151 182 156 144 150 146 141 144 157 161 167 169 120 84 174 158 155 155 164 197 220 217 193 150 115 148 168 177 187 238 229 176 197 195 184 185 166 154 158 187 169 141 173 175 168 208 218 213 242 268 281 288 237 204 204 247 240 237 262 287 285 262 251 239 251 255 237 221 204 208
149 148 147 146 146 148 148 149 155 157 156 158 159 159 167 178 176 149 162 169 135 139 141 138 137 142 160 161 176 189 154 122 181 159 162 176 182 190 192 201 198 154 135 170 191 166 176 217 274 251 260 160 190 223 147 135 160 205 143 129 191 188 159 185 199 183 184 260 269 248 231 213 207 271 275 254 271 287 300 302 280 237 235 174 175 211 210 220
145 143 142 139 141 148 151 154 159 159 158 155 161 178 184 179 175 160 157 153 147 144 138 141 147 149 160 154 184 207 207 136 167 166 181 190 191 192 187 187 191 178 163 165 163 143 166 218 320 331 309 138 178 233 163 157 184 170 133 186 218 165 123 132 223 142 98 225 255 204 247 287 314 289 297 319 282 275 282 298 274 250 250 204 203 215 219 230
141 138 137 136 143 152 156 158 160 160 160 162 172 187 183 151 156 136 133 139 140 139 138 146 164 163 165 169 182 194 187 136 168 176 178 179 196 197 190 193 188 184 182 158 164 197 154 169 317 70 170 265 166 97 347 336 138 135 179 202 186 111 106 119 195 18 58 233 268 283 224 275 304 267 312 340 293 268 263 265 277 276 262 239 234 234 236 244
135 133 124 137 150 156 158 158 158 157 158 172 185 191 151 52 157 131 130 136 137 143 148 153 172 176 175 173 179 183 173 165 180 182 172 177 224 199 181 192 189 179 189 153 149 207 136 122 308 31 183 279 360 90 271 334 47 136 184 175 137 176 209 153 178 196 198 231 276 302 255 255 213 220 295 299 255 252 255 252 258 248 231 230 238 243 248 255
127 129 102 144 153 154 155 156 154 150 165 179 187 199 165 124 157 140 138 140 142 150 156 158 164 171 179 173 164 173 181 178 172 174 181 186 233 213 178 180 177 177 183 154 153 199 138 132 256 286 229 284 9 125 190 237 358 41 92 121 122 182 188 183 176 171 191 221 254 294 301 266 227 213 227 243 244 242 235 227 232 229 219 219 225 229 232 228
124 125 104 151 153 151 149 148 145 158 182 182 181 223 201 111 144 150 147 145 145 155 162 163 162 158 167 167 158 168 179 164 165 179 220 180 197 233 189 174 163 168 167 149 160 179 131 133 190 292 338 151 190 209 185 181 184 150 140 172 196 150 149 204 209 130 149 190 204 249 285 265 250 212 201 228 248 250 224 221 234 231 220 220 220 219 218 212
122 113 116 154 152 146 141 137 159 177 181 169 173 262 233 129 145 156 155 149 144 137 148 155 160 156 155 159 163 171 164 148 171 181 197 183 182 217 202 174 154 150 142 153 181 178 153 143 150 166 162 181 229 238 197 192 191 173 172 183 186 163 126 173 230 202 124 180 179 172 255 266 257 209 204 232 258 273 245 232 241 236 217 216 217 213 212 205
123 121 141 157 154 146 142 156 182 171 172 170 184 249 167 141 144 154 159 152 141 97 114 143 157 155 155 163 165 168 161 155 178 182 182 194 187 191 198 170 153 157 159 164 186 171 122 111 122 170 213 209 240 250 197 191 268 229 221 195 178 178 152 169 212 228 195 224 156 138 243 268 261 217 213 237 260 269 255 238 248 247 223 216 218 215 214 212
119 113 129 155 157 152 153 172 164 161 190 192 272 281 169 143 148 154 160 161 151 127 129 140 156 158 165 168 162 165 167 164 184 187 173 175 187 201 193 168 152 160 167 160 167 153 95 100 106 15 309 307 307 312 2 69 49 273 263 236 174 193 182 171 183 171 190 211 158 183 252 265 273 259 235 249 266 276 269 245 241 251 241 223 221 215 207 204
110 98 108 154 163 163 167 177 170 175 181 185 247 245 165 132 155 159 162 166 159 138 143 148 158 161 162 161 163 169 171 170 190 191 165 161 187 224 181 171 160 164 180 181 175 176 168 154 133 112 30 339 333 315 294 74 73 236 252 277 231 166 131 134 132 117 226 228 171 190 246 252 269 301 304 284 292 296 280 253 228 238 240 229 224 212 193 185
120 98 53 145 166 174 185 191 170 168 169 182 204 198 134 115 164 166 161 163 159 132 138 146 149 138 127 142 153 169 173 165 170 180 153 152 176 5 149 183 177 177 189 172 157 163 179 175 156 155 177 198 208 227 217 177 133 234 219 213 211 169 154 169 139 148 233 234 157 190 241 252 276 303 305 297 302 289 277 274 260 250 244 235 224 200 183 181
133 122 123 130 171 197 202 14 112 159 171 182 199 194 155 140 124 156 151 157 184 131 121 126 136 121 130 147 147 171 183 156 98 160 156 152 169 337 215 186 183 182 162 144 144 140 145 177 188 191 200 198 187 190 168 141 151 206 203 183 195 196 183 168 148 194 213 169 186 227 233 238 253 264 275 287 284 268 272 282 276 261 251 241 222 198 186 185
133 155 160 150 155 182 196 216 156 174 181 182 186 184 160 148 143 141 133 148 191 140 100 112 148 144 157 160 155 174 180 144 100 153 153 148 153 26 47 123 125 58 81 151 155 131 121 198 204 202 211 194 158 158 158 152 173 199 193 188 200 195 174 171 202 214 163 117 242 240 218 226 242 244 258 268 267 266 266 259 254 245 234 223 194 179 181 182
142 173 183 157 146 173 187 191 181 180 182 185 186 156 153 154 158 164 156 47 167 155 114 136 172 168 165 163 157 162 167 150 147 161 149 139 137 94 40 68 96 345 42 151 161 123 146 204 205 190 201 184 150 164 168 168 187 195 189 197 200 187 182 195 219 218 169 194 242 238 210 235 236 231 248 249 242 249 255 254 247 214 209 201 177 178 187 189
112 139 209 341 23 156 153 150 160 173 179 181 190 167 165 165 165 164 144 125 156 179 157 160 179 173 164 163 156 156 171 173 176 180 160 144 146 132 103 106 146 3 78 132 164 143 169 202 187 167 179 186 173 176 176 179 191 194 198 204 199 192 196 203 217 219 203 224 246 245 246 252 233 211 240 249 237 247 274 299 234 198 207 196 184 194 198 200
119 155 168 96 70 123 112 111 141 170 185 185 189 190 175 169 166 161 144 157 165 183 177 164 170 167 163 166 162 172 186 177 163 170 160 145 154 162 150 163 168 76 85 138 165 185 199 210 171 146 159 215 205 176 181 192 194 197 212 216 208 205 209 212 220 219 209 235 249 245 252 258 236 191 237 256 239 219 283 272 236 221 215 192 189 205 205 208
90 334 143 130 121 133 136 139 154 168 188 198 197 196 183 178 171 154 109 165 161 167 174 160 155 154 161 170 176 184 188 171 154 162 161 156 166 176 173 169 156 141 142 160 156 155 177 192 132 121 159 227 231 170 181 184 176 228 238 227 214 210 214 218 220 208 201 224 238 237 246 253 180 161 234 243 217 196 230 245 241 234 213 193 197 208 208 213
68 14 35 102 100 140 153 150 156 176 192 191 181 176 164 169 168 147 131 14 41 123 153 149 145 147 162 179 191 188 175 157 148 154 155 151 156 157 144 156 158 156 159 159 150 149 149 148 141 145 173 235 280 147 150 121 115 249 244 220 209 210 213 217 227 223 216 215 219 229 238 226 144 193 233 231 202 218 236 239 237 234 214 200 206 210 213 218